This demonstration page uses our WeatherBlox Daily Observations layout. Learn more.

39.29038, -76.61219

Hourly Observations for December 16, 2019

Temp ( °F °C ) Dew Point ( °F °C ) Humidity (%) Winds ( mph kmh ) Pressure ( in mb ) Visibility ( mi km ) Precip ( " mm )
12:54 am 00:54 undefined 39 3.9 21 -6.1 48 48 undefined N/A 30.23 1024 N/A 0 0
1:54 am 01:54 undefined 38 3.3 26 -3.3 62 62 undefined N/A 30.24 1024 N/A 0 0
2:54 am 02:54 undefined 37 2.8 29 -1.7 73 73 undefined N/A 30.24 1024 N/A 0 0
3:54 am 03:54 undefined 35 1.7 30 -1.1 82 82 undefined N/A 30.2 1023 N/A 0 0
4:54 am 04:54 undefined 34 1.1 30 -1.1 85 85 undefined N/A 30.21 1023 N/A 0.02 0.508
5:54 am 05:54 undefined 34 1.1 30 -1.1 85 85 undefined N/A 30.26 1025 N/A 0.01 0.254
6:54 am 06:54 undefined 33 0.6 30 -1.1 89 89 undefined N/A 30.26 1025 N/A 0.03 0.762
7:54 am 07:54 undefined 34 1.1 31 -0.6 89 89 undefined N/A 30.27 1025 N/A 0.02 0.508
8:54 am 08:54 undefined 34 1.1 31 -0.6 89 89 undefined N/A 30.29 1026 N/A 0 0
9:54 am 09:54 undefined 35 1.7 32 0 89 89 undefined N/A 30.29 1026 N/A 0 0
10:54 am 10:54 undefined 35 1.7 32 0 89 89 undefined N/A 30.26 1025 N/A 0.01 0.254
11:54 am 11:54 undefined 35 1.7 32 0 89 89 undefined N/A 30.23 1024 N/A 0 0
12:54 pm 12:54 undefined 35 1.7 32 0 89 89 undefined N/A 30.21 1023 N/A 0 0
1:54 pm 13:54 undefined 35 1.7 32 0 89 89 undefined N/A 30.19 1022 N/A 0 0
2:54 pm 14:54 undefined 36 2.2 31 -0.6 82 82 undefined N/A 30.18 1022 N/A 0 0
3:54 pm 15:54 undefined 35 1.7 31 -0.6 85 85 undefined N/A 30.17 1022 N/A 0 0
4:54 pm 16:54 undefined 35 1.7 31 -0.6 85 85 undefined N/A 30.18 1022 N/A 0.03 0.762
5:54 pm 17:54 undefined 36 2.2 32 0 86 86 undefined N/A 30.22 1023 N/A 0.04 1.016
6:54 pm 18:54 undefined 35 1.7 32 0 89 89 undefined N/A 30.19 1022 N/A 0.04 1.016
7:54 pm 19:54 undefined 36 2.2 33 0.6 89 89 undefined N/A 30.17 1022 N/A 0.01 0.254
8:54 pm 20:54 undefined 36 2.2 33 0.6 89 89 undefined N/A 30.14 1021 N/A 0.01 0.254
9:54 pm 21:54 undefined 36 2.2 33 0.6 89 89 undefined N/A 30.11 1020 N/A 0 0
10:54 pm 22:54 undefined 36 2.2 34 1.1 93 93 undefined N/A 30.1 1019 N/A 0 0
11:54 pm 23:54 undefined 36 2.2 34 1.1 93 93 undefined N/A 30.06 1018 N/A 0.02 0.508

Powered by AerisWeather